South Holston Observed Data For Previous 48 Hours

Caption
Day and Hour Reservoir Elevation (behind dam)* Tailwater Elevation (below dam)* Average Hourly Discharge*
5/21/2017 2 AM EDT 1,730.80 1,488.98 2,383
5/21/2017 3 AM EDT 1,730.78 1,488.95 2,379
5/21/2017 4 AM EDT 1,730.75 1,488.92 2,386
5/21/2017 5 AM EDT 1,730.75 1,488.93 2,359
5/21/2017 6 AM EDT 1,730.76 1,488.98 2,369
5/21/2017 7 AM EDT 1,730.73 1,488.98 2,361
5/21/2017 8 AM EDT 1,730.76 1,488.97 2,371
5/21/2017 9 AM EDT 1,730.73 1,488.96 2,375
5/21/2017 10 AM EDT 1,730.72 1,488.95 2,374
5/21/2017 11 AM EDT 1,730.72 1,488.97 2,369
5/21/2017 12 PM EDT 1,730.70 1,488.97 2,376
5/21/2017 1 PM EDT 1,730.69 1,488.99 2,374
5/21/2017 2 PM EDT 1,730.69 1,488.95 2,377
5/21/2017 3 PM EDT 1,730.68 1,488.97 2,375
5/21/2017 4 PM EDT 1,730.68 1,488.97 2,381
5/21/2017 5 PM EDT 1,730.68 1,488.97 2,380
5/21/2017 6 PM EDT 1,730.70 1,488.98 2,382
5/21/2017 7 PM EDT 1,730.69 1,488.92 2,366
5/21/2017 8 PM EDT 1,730.67 1,489.00 2,364
5/21/2017 9 PM EDT 1,730.67 1,488.91 2,372
5/21/2017 10 PM EDT 1,730.67 1,488.96 2,379
5/21/2017 11 PM EDT 1,730.66 1,488.98 2,376
5/22/2017 12 AM EDT 1,730.65 1,489.01 2,385
5/22/2017 1 AM EDT 1,730.65 1,488.91 2,363
5/22/2017 2 AM EDT 1,730.64 1,488.92 2,360
5/22/2017 3 AM EDT 1,730.63 1,489.01 2,381
5/22/2017 4 AM EDT 1,730.62 1,489.00 2,379
5/22/2017 5 AM EDT 1,730.62 1,488.98 2,381
5/22/2017 6 AM EDT 1,730.61 1,488.97 2,373
5/22/2017 7 AM EDT 1,730.60 1,489.02 2,366
5/22/2017 8 AM EDT 1,730.59 1,488.99 2,374
5/22/2017 9 AM EDT 1,730.59 1,488.99 2,376
5/22/2017 10 AM EDT 1,730.57 1,488.93 2,372
5/22/2017 11 AM EDT 1,730.57 1,488.93 2,381
5/22/2017 12 PM EDT 1,730.57 1,488.95 2,369
5/22/2017 1 PM EDT 1,730.56 1,488.95 2,380
5/22/2017 2 PM EDT 1,730.56 1,488.98 2,376
5/22/2017 3 PM EDT 1,730.56 1,488.95 2,365
5/22/2017 4 PM EDT 1,730.54 1,488.94 2,370
5/22/2017 5 PM EDT 1,730.54 1,488.94 2,366
5/22/2017 6 PM EDT 1,730.53 1,488.97 2,369
5/22/2017 7 PM EDT 1,730.53 1,488.95 2,371
5/22/2017 8 PM EDT 1,730.52 1,488.95 2,380
5/22/2017 9 PM EDT 1,730.52 1,488.98 2,380
5/22/2017 10 PM EDT 1,730.51 1,488.98 2,379
5/22/2017 11 PM EDT 1,730.51 1,488.97 2,366
5/23/2017 12 AM EDT 1,730.50 1,488.98 2,380
5/23/2017 1 AM EDT 1,730.49 1,489.02 2,376
5/23/2017 2 AM EDT 1,730.48 1,488.99 2,388
5/23/2017 3 AM EDT 1,730.47 1,488.95 2,381
5/23/2017 4 AM EDT 1,730.46 1,488.96 2,373
5/23/2017 5 AM EDT 1,730.45 1,488.98 2,378
5/23/2017 6 AM EDT 1,730.43 1,488.93 2,375
5/23/2017 7 AM EDT 1,730.42 1,488.93 2,370
5/23/2017 8 AM EDT 1,730.42 1,488.99 2,381
5/23/2017 9 AM EDT 1,730.41 1,488.97 2,372
5/23/2017 10 AM EDT 1,730.39 1,488.94 2,365
5/23/2017 11 AM EDT 1,730.38 1,488.93 2,369
5/23/2017 12 PM EDT 1,730.38 1,488.94 2,382

Elevations are in feet above sea level. Discharges are in cubic feet per second and are reported at the end of the hour.